NOAA 16 DEB, 42371

Orbit data source: Space-Track

NOAA 16 DEB, 42371 is space debris in SSO originally from a launch on Thu, 21 Sep 2000 UTC launched from the Air Force Western Test Range (AFWTR). Debris objects in space refer to the collection of defunct objects orbiting the Earth. Examples of debris include non-operational satellites, rocket bodies, and fragments generated from explosions, collisions, or faulty payload assembly.

Loading next visibility...
Identifier
42371, 2000-055RP
Orbit
SSO
Country
Flag of USUS
Related business
Manufacturer
Unknown
Mission
Spacecraft
Bus & Motor
Unknown
Mass
Unknown
Launch date (UTC)
2000-09-21 (25 years ago)
Launch vehicle
Unknown
Launch site
Air Force Western Test Range (AFWTR)
Object type
Payload
Rocket body
Debris
Shape & HBR
Unknown shape, 0.1 m
Radar Cross Section
Small (<0.1 m²)

Expand to show TLE details & history
Last TLE update: 3 days ago

TLE from 3 days ago
0 NOAA 16 DEB
1 42371U 00055RP  25346.70912977  .00021031  00000-0  47109-2 0  9999
2 42371  99.0700 258.0448 0032417 277.0582  82.6927 14.56325598515387
Epoch: 2025-12-12T17:01Z
TLE epoch observation values (Epoch: 2025-12-12T17:01:08.812Z)
Latitude
-0.00002°
Longitude
-78.88878°
Altitude
705.167 km
Speed
7.505 km/s
True Right ascension
17h 12m 10s
True Declination
0° 00' 00"
Sunlit
Object was in daylight at epoch
Visualization orbit readout
Latitude
Unknown
Longitude
Unknown
Altitude
Unknown
Speed
Unknown
Apparent Right ascension
Unknown
Apparent Declination
Unknown
Sunlit
N/A
Visualization observer readout
Local Sidereal Time
22:11:33
Azimuth
Unknown
Elevation
Unknown
Doppler factor
Unknown
Orbital elements
Apogee altitude
725.144 km
Perigee altitude
679.239 km
Semi-major axis
7,080.328 km
Eccentricity
0.00324
Inclination
99.07°
RAAN
258.0448°
Arg. of periapsis
277.0582°
True anomaly
83.06134°
Mean anomaly
82.6927°
Eccentric anomaly
82.877°
Mean motion
3.64303 °/min
Orbital period
98.82 mins
BSTAR
0.0047109
Loading maneuver chart data...
Computing Atmospheric mass density...
Loading historical data...
Loading historical data...
Loading historical data...
Loading historical data...
Loading historical data...
Loading historical data...
Loading historical data...

Documentation

Showing up to 5 results
|